User: anonymous   Login
Location: Unspecified
(0.0000°N, 0.0000°E)
Time: 09:30:03
(UTC+00:00)
Language:

Oscar 19 - Orbit

View from above orbital plane
View from above orbital plane
View from above satellite
View from above satellite

Ground track
Ground track

The orbit data is extracted from the following two-line orbital elements,

1 20442U 90005G   20224.88401428 -.00000014 +00000-0 +11260-4 0  9991
2 20442 098.6950 172.3306 0011745 357.6600 002.4527 14.32958168596498
Epoch (UTC): 11 August 2020 21:12:58
Eccentricity: 0.0011745
inclination: 98.6950°
perigee height: 773 km
apogee height: 790 km
right ascension of ascending node: 172.3306°
argument of perigee: 357.6600°
revolutions per day: 14.32958168
mean anomaly at epoch: 2.4527°
orbit number at epoch: 59649

The dashed part of the orbit path shows where the satellite is in the earth's shadow,  

DLR